カタログに戻る

COSMOS 2154

運用中軍事PO
NORAD 21666·PAYLOAD·🇷🇺 Russia

打ち上げ Aug 22, 1991 から Plesetsk Cosmodrome

Loading…

次のパス (今後24時間)

TLE

最新Source: Space-Track

元期: Sep 14, 2026, 09:08 UTC

1 21666U 91059A   26257.38078347  .00000037  00000-0  24267-4 0  9992
2 21666  82.9063  43.1269 0024259 327.2648  61.2371 13.73544386757081

AllMySatでCOSMOS 2154をリアルタイム追跡

Download on the App Store